Location: Cheyres
(46.8153°N, 6.7877°E)
Time: 04:27:30
(UTC+00:00)

BREEZE-M DEB (TANK) - Pass Details

Date: 11 May 2021
Orbit: 320 x 13078 km, 49.7° (Epoch: 17 June)

Event Time Altitude Azimuth Distance (km) Brightness Sun altitude
Rises 22:30:24 0° 287° (WNW) 10,202 9.7 -23.7°
Reaches altitude 10° 22:40:21 10° 289° (WNW) 6,972 8.7 -24.1°
Maximum altitude 22:56:00 85° 204° (SSW) 1,159 4.2 -24.6°
Enters shadow 22:57:49 45° 119° (ESE) 1,232 4.2 -24.7°
